Regional Weather Roundup
Issued by NWS Newport/Morehead, NC

Current Version | Previous Version | Text Only | Print | Product List | Glossary On
Versions: 1 2 3 4 5 6 7 8 9 10 11 12 13 14 15 16 17 18 19 20 21 22 23 24 25 26 27 28 29 30 31 32 33 34 35 36 37 38 39 40 41 42 43 44 45 46 47 48 49 50
000 ASUS42 KMHX 291225 RWRMHX WEATHER ROUNDUP FOR EASTERN NORTH CAROLINA NATIONAL WEATHER SERVICE NEWPORT/MOREHEAD CITY NC 800 AM EDT SAT APR 29 2017 NOTE: "FAIR" INDICATES FEW OR NO CLOUDS BELOW 12,000 FEET WITH NO SIGNIFICANT WEATHER AND/OR OBSTRUCTIONS TO VISIBILITY NCZ015>017-031-032-045>047-102-103-291300- NORTH COAST CITY SKY/WX TMP DP RH WIND PRES REMARKS EDENTON CLOUDY 77 71 83 SW8 30.22R ELIZABETH CITY CLOUDY 75 73 93 SW12 30.19R KITTY HAWK MOSUNNY 75 71 87 SW8 30.20R MANTEO MOSUNNY 74 71 87 W13 30.21R $$ NCZ045>047-081-094-103-104-291300- CENTRAL COAST CITY SKY/WX TMP DP RH WIND PRES REMARKS FRISCO SUNNY 74 71 91 SW10 30.22S FOG $$ NCZ095-097-098-100-101-291300- SOUTHERN COAST CITY SKY/WX TMP DP RH WIND PRES REMARKS BEAUFORT MOSUNNY 75 75 100 SW12 30.24S CEDAR ISLAND NOT AVBL JACKSONVILLE SUNNY 75 73 93 SW5 30.23R PINEY ISLAND SUNNY N/A N/A N/A SW13 30.22S WILMINGTON SUNNY 76 72 87 S8 30.24R $$ NCZ011>013-027>030-043-044-078>080-089-090>093-098-291300- COASTAL PLAIN CITY SKY/WX TMP DP RH WIND PRES REMARKS AHOSKIE N/A 75 71 87 S5 30.19R CLINTON MOSUNNY 75 73 92 SW6 30.24R ELIZABETHTOWN SUNNY 75 72 91 S6 30.23S GOLDSBORO SUNNY 75 75 100 S12 30.20R GREENVILLE MOSUNNY 77 73 88 SW9 30.22R HAVELOCK NOT AVBL KENANSVILLE MOSUNNY 75 70 83 SW9 30.23S KINSTON NOT AVBL NEW BERN SUNNY 75 73 93 SW8 30.24R RICHLANDS PTSUNNY 75 72 88 SW6 30.24R ROCKY MOUNT PTSUNNY 75 72 90 S9 30.20R WASHINGTON SUNNY 75 70 85 SW13G21 30.22R WHITEVILLE MOSUNNY 75 72 90 S6 30.23S $$ AMZ130-135-150-152-154-156-158-170-250-252-270-ANZ085-086-088-633-658-670-291300- MARINE OBSERVATIONS STATION/POSITION TIME TEMP WIND PRES WAVE SWELL AIR SEA DIR/SP/G HT/PER HT/PER (UTC) (F) (DEG/KT/KT) (MB) (FT/S) (FT/S) CHESAPEAKE LIGHT NOT AVBL 64 E VA BEACH 1150 60 57 220/ 8/ 10 1022.9 4/ 8 3/ 8 DUCK 1200 74 57 230/ 13/ 17 1022.3 2 E DUCK 1200 58 N/A 2/ 8 OREGON INLET 1200 74 75 210/ 16/ 19 1022.6 13E OREGON INLT 1148 62 N/A 3/ 5 2/ 8 HATTERAS CG 1200 74 71 210/ 11/ 15 1023.1 DIAMOND BUOY 1150 77 76 230/ 14/ 16 1023.7 4/ 6 2/ 7 CAPE LOOKOUT 1200 74 250/ 8/ 10 1024.0 BEAUFORT LAB 1200 74 71 220/ 5/ 7 1023.3 30 SE NEW RVR IN 1208 72 250/ 4/ 6 1024.7 30 SE NEW RVR IN 1213 72 N/A 4/ 6 27 SE WRIGHTSVLE 1208 74 72 210/ 6/ 8 1023.6 5 SE WRIGHTSVLE 1208 72 70 190/ 8/ 10 1024.0 225 S CAPE HAT 1150 74 76 150/ 10/ 10 1025.2 4/ 7 3/ 7 41 SE CHARLESTON 1200 75 74 170/ 8/ 8 1023.3 $$

USA.gov is the U.S. government's official web portal to all federal, state and local government web resources and services.